Powrót do katalogu

STARLINK-34486

AktywnyŁącznośćVLEO
NORAD 64597·PAYLOAD·🇺🇸 United States

Wystrzelony Jun 25, 2025 z Cape Canaveral Space Force Station

Loading…

Następne Przeloty (najbliższe 24 godziny)

TLE

ŚwieżeSource: CelesTrak SupGP

Epoka: Sep 15, 2026, 03:03 UTC

1 64597C 25137D   26258.12756944 -.00039819  00000+0 -11768-2 0  2584
2 64597  53.1579 174.4697 0001158  75.5880 176.3443 15.34401338    10

Śledź STARLINK-34486 w czasie rzeczywistym z AllMySat

Download on the App Store